Погода в Комрате

Погода в Комрате : погода сейчас, прогноз погоды и архив. Всё, что Вы хотите узнать о погоде в Комрате!

Поиск расширенной информации на нашем сайте:

Другие новости

Новости СМИ2

Главная страница сайта

Новости сайта

03.07.2017

Напоминаем, что на нашем специализированном сайте Метеоцентр.Азия вы можете получить высокодетализированные автоматические прогнозы погоды по пунктам России, СНГ и мира в авиационном формате (включающие направление и скорость ветра, видимость, явления погоды, количество и форму облачности, нижнюю и верхнюю границу облачности).


Погода в Комрате - сегодня

Время (UTC), дата Ветер
(°,м/с) 
Видим.   Явления Облачность Т
(°С)
Тd
(°С)
f(%) Тe
(°С)
Pmin
(гПа)
dP
(гПа)
Po
(мм)
O2
(г/м3)
Тmin Tmax R s Состояние
почвы
00 18.11.17 020 (С) 4000 м  дымка  9/0 средняя 
[Ac As]
+3.8 +2.6 92 +5  1021.1  -1.1  753  299           
03 18.11.17 010 (С) 4000 м  дымка  10/10 600 м 
[St]
+2.8 +2.4 97 +4  1020.6  -0.6  753  300           
06 18.11.17 360 (С) 4000 м  дымка  10/10 360 м 
[St]
+3.2 +3.1 99 +4  1019.6  -0.9  752  299  +2.7         
09 18.11.17 010 (С) 4000 м  дымка  10/10 600 м 
[St]
+5.9 +4.1 88 +7  1018.9  -0.5  752  296           
12 18.11.17 тихо ()   10 км    10/10 600 м 
[Sc]
+7 +4.1 82 +7  1017.2  -1.7  750  294           
15 18.11.17 тихо ()   10 км    10/10 600 м 
[Sc]
+6.5 +4 84 +7  1016  -1.2  749  294           
18 18.11.17 тихо ()   10 км    10/10 600 м 
[Sc]
+5.7 +4.3 91 +6  1015.2  -0.8  749  295    +7.2       
21 18.11.17 тихо ()   10 км  слаб. ливневой дождь  10/10 600 м кучево-дожд. 
[Cb calv]
+5.5 +4.8 95 +6  1014.3  -0.9  748  295           
00 19.11.17 тихо ()   10 км  слаб. ливневой дождь  10/10 600 м 
+5.7 +5.4 98 +6  1012.9  -1.4  747  294           
03 19.11.17 тихо ()   4000 м  дымка{ливн. осадки}  10/10 600 м 
[St]
+5.8 +5.7 99 +6  1010.9  -1.9  746  293           
06 19.11.17 тихо ()   0500 м  туман{ливн. осадки}  10/10 600 м 
[St]
+6 +5.9 99 +6  1010.6  -0.3  746  293  +5.5       
09 19.11.17 тихо ()   4000 м  в посл. час туман  10/10 600 м 
[St]
+7 +6.9 99 +7  1010.3  -0.2  745  292           
12 19.11.17 310 (СЗ) 4000 м  дымка{туман}  10/0 средняя 
[As op]
+7 +6.7 98 +6  1009.8  -0.5  745  292           
15 19.11.17 330 (СЗ) 4000 м  дымка  10/10 600 м 
[Sc]
+6.8 +5.6 92 +7  1010.3  0.5  745  292           
18 19.11.17 320 (СЗ) 4000 м  дымка  10/10 600 м 
[Sc]
+6.2 +5.3 94 +5  1010.9  0.5  746  293    +7.7       
21 19.11.17 330 (СЗ) 4000 м  дымка  10/10 600 м 
[Sc]
+4.8 +3.5 91 +4  1011.5  0.5  746  295           
00 20.11.17 330 (СЗ) 4000 м  дымка  10/10 600 м 
[Sc]
+3.9 +2.7 92 +3  1011  -0.5  746  296           
03 20.11.17 340 (С) 10 км  гроза, пыльная буря  10/10 600 м 
[Sc]
+3.2 +1.7 90 +2  1010.6  -0.5  745  297           
06 20.11.17 340 (С) 20000 м    8/3 600 м средняя 
[Sc|Ac As]
+2.4 +0.5 87 +3  1011  0.4  746  298  +2.2         
09 20.11.17 350 (С) 20000 м    8/0 средняя 
[Ac As]
+5.5 +0.7 71 +4  1010.4  -0.4  745  294           
12 20.11.17 340 (С) 20000 м    8/0 средняя 
[As trans]
+7.3 -1.1 55 +7  1010  -0.3  745  293           
15 20.11.17 320 (СЗ) 10 км    10/0 средняя 
[As op]
+5.1 -0.5 67 +5  1010.5  0.3  745  295           
18 20.11.17 340 (С) 10 км    10/10 420 м 
[Ns]
+3.8 +0 76 +2  1011.5  0.9  746  296    +7.5       
21 20.11.17 320 (СЗ) 10 км    4/0 средняя 
[As trans]
+2.9 -1.5 73 +2  1012.1  0.6  746  298           
00 21.11.17 310 (СЗ) 10 км    ясно 
+1.4 -1 84 -1  1013.7  1.5  748  300           
Время (UTC), дата Ветер
(°,м/с) 
Видим.   Явления Облачность Т
(°С)
Тd
(°С)
f(%) Тe
(°С)
Pmin
(гПа)
dP
(гПа)
Po
(мм)
O2
(г/м3)
Тmin Tmax R s Состояние
почвы

Для получения пояснительной информации подведите курсор к названию столбца.

ПОГОДА в Комрате - архив

Всё, что Вы хотите узнать о погоде в Комрате - удобно и подробно!

Выберите нужную дату (начиная с 1 января 2015* года) и нажмите кнопку "Найти".
Будут отображены архивные сводки погоды по пункту Комрат, начиная с указанной даты.


Отображать данные в формате CSV (для использования в таблицах Excel)


Внимание! Наш архив погоды предназначен исключительно для личного некоммерческого использования в познавательных целях. Если Вам необходимы официальные справки о состоянии погоды (для производственных, юридических, коммерческих и т.п. целей), обращайтесь в органы Росгидромета.

*Примечание: данная дата относится к архиву по метеостанциям СССР (Россия, СНГ, Балтия).
Архив по метеостанциям Зарубежной Европы и Азии (кроме Китая) хранится 10 дней, по другим регионам земного шара (Китай, Африка, Америка, Австралия, Океания) - 1 день.

Комрат - район местоположения метеостанции


Название, широта, долгота, высота метеостанции:
Комрат 46.3°ш. 28.6°д. 133 м над ур. моря [Молдавия]

Дополнительная информация

В oтличие oт бoльшинства пoгoдных сайтoв мы публикуем пoдрoбную метеoинфoрмацию в детальнoм прoфессиoнальнoм фoрмате.

Характеристики температуры и влажнoсти вoздуха измеряются на высoте 2 м в тени вдали oт зданий и деревьев.
Скoрoсть ветра измеряется на высoте 10 м (на урoвне рoста челoвека скoрoсть ветра ниже в 1.5-2 раза). Если метеoстанция нахoдится в гoрoде или в лесу, тo скoрoсть ветра занижена на 2-4 м/с пo сравнению с oткрытым местoм. Скoрoсть ветра над акватoриями крупных рек и oзёр, а также на вершинах хoлмoв на 2-5 м/с выше, чем в oбычных услoвиях.
Атмoсфернoе давление в разных тoчках местнoсти мoжет значительнo oтличаться oт давления на метеoстанции, в зависимoсти oт услoвий рельефа (при пoдъёме на 10 м давление пoнижается примернo на 1 мм рт.ст.).